When you browse on this site, cookies collect data to enhance your experience and personalize the content and advertising you see.
Visit our Privacy Policy to learn more. By continuing to use the site, you agree to this use of cookies and data.
  • Em Portugal
  • Lista de países
  • Para 7 dias
  • Temperatura da água
  • Mapa do tempo
  • Widgets de tempo
  • user-avatar
    Iniciar Sessão

    Previsão horária em Konstantyna

    Hoje, 23 Setembro, Segunda-feira

    Tempo Temperatura Precipitação Vento Pressão Humidade
    00:00 +26°C° 0 mm 2 m/s 712 mmHg 56%
    01:00 +26°C° 0 mm 2 m/s 711 mmHg 61%
    02:00 +25°C° 0 mm 2 m/s 711 mmHg 65%
    03:00 +24°C° 0 mm 1 m/s 711 mmHg 70%
    04:00 +24°C° 0 mm 1 m/s 711 mmHg 72%
    05:00 +23°C° 0 mm 1 m/s 711 mmHg 74%
    06:00 +23°C° 0 mm 1 m/s 711 mmHg 75%
    07:00 +24°C° 0 mm 1 m/s 712 mmHg 66%
    08:00 +26°C° 0 mm 2 m/s 713 mmHg 57%
    09:00 +27°C° 0 mm 2 m/s 713 mmHg 49%
    10:00 +28°C° 0 mm 2 m/s 713 mmHg 44%
    11:00 +29°C° 0 mm 2 m/s 713 mmHg 39%
    12:00 +30°C° 0 mm 2 m/s 713 mmHg 34%
    13:00 +31°C° 0 mm 3 m/s 713 mmHg 35%
    14:00 +31°C° 0 mm 3 m/s 713 mmHg 35%
    15:00 +31°C° 0 mm 3 m/s 712 mmHg 36%
    16:00 +29°C° 0 mm 3 m/s 712 mmHg 43%
    17:00 +28°C° 0 mm 2 m/s 712 mmHg 50%
    18:00 +26°C° 0 mm 2 m/s 712 mmHg 57%
    19:00 +25°C° 0 mm 2 m/s 712 mmHg 60%
    20:00 +25°C° 0 mm 1 m/s 712 mmHg 63%
    21:00 +24°C° 0 mm 1 m/s 713 mmHg 66%
    22:00 +24°C° 0 mm 1 m/s 713 mmHg 67%
    23:00 +23°C° 0 mm 1 m/s 712 mmHg 68%

    Amanhã, 24 Setembro, Terça-feira

    Tempo Temperatura Precipitação Vento Pressão Humidade
    00:00 +21°C° 0 mm 0 m/s 712 mmHg 69%
    01:00 +21°C° 0 mm 0 m/s 712 mmHg 70%
    02:00 +20°C° 0 mm 0 m/s 712 mmHg 70%
    03:00 +20°C° 0 mm 0 m/s 711 mmHg 71%
    04:00 +20°C° 0 mm 0 m/s 711 mmHg 70%
    05:00 +20°C° 0 mm 0 m/s 711 mmHg 70%
    06:00 +20°C° 0 mm 0 m/s 711 mmHg 70%
    07:00 +22°C° 0 mm 0 m/s 712 mmHg 62%
    08:00 +25°C° 0 mm 1 m/s 712 mmHg 55%
    09:00 +27°C° 0 mm 1 m/s 713 mmHg 48%
    10:00 +28°C° 0 mm 1 m/s 713 mmHg 44%
    11:00 +30°C° 0 mm 2 m/s 713 mmHg 39%
    12:00 +31°C° 0 mm 2 m/s 712 mmHg 35%
    13:00 +31°C° 0 mm 3 m/s 712 mmHg 35%
    14:00 +31°C° 0 mm 3 m/s 712 mmHg 35%
    15:00 +32°C° 0 mm 4 m/s 712 mmHg 34%
    16:00 +29°C° 0 mm 3 m/s 711 mmHg 43%
    17:00 +27°C° 0 mm 3 m/s 711 mmHg 51%
    18:00 +25°C° 0 mm 2 m/s 711 mmHg 59%
    19:00 +25°C° 0 mm 2 m/s 711 mmHg 61%
    20:00 +24°C° 0 mm 1 m/s 711 mmHg 63%
    21:00 +24°C° 0 mm 1 m/s 711 mmHg 66%
    22:00 +21°C° 0 mm 0 m/s 711 mmHg 66%
    23:00 +21°C° 0 mm 0 m/s 711 mmHg 66%

    Depois de amanhã, 25 Setembro, Quarta-feira

    Tempo Temperatura Precipitação Vento Pressão Humidade
    00:00 +21°C° 0 mm 0 m/s 710 mmHg 66%
    01:00 +21°C° 0 mm 0 m/s 710 mmHg 66%
    02:00 +21°C° 0 mm 0 m/s 710 mmHg 67%
    03:00 +20°C° 0 mm 0 m/s 709 mmHg 67%
    04:00 +20°C° 0 mm 0 m/s 709 mmHg 67%
    05:00 +20°C° 0 mm 0 m/s 709 mmHg 67%
    06:00 +20°C° 0 mm 0 m/s 710 mmHg 67%
    07:00 +22°C° 0 mm 0 m/s 710 mmHg 59%
    08:00 +26°C° 0 mm 1 m/s 711 mmHg 51%
    09:00 +28°C° 0 mm 1 m/s 711 mmHg 44%
    10:00 +29°C° 0 mm 1 m/s 711 mmHg 38%
    11:00 +30°C° 0 mm 2 m/s 711 mmHg 32%
    12:00 +32°C° 0 mm 2 m/s 711 mmHg 26%
    13:00 +31°C° 0 mm 3 m/s 711 mmHg 26%
    14:00 +31°C° 0 mm 3 m/s 711 mmHg 26%
    15:00 +32°C° 0 mm 4 m/s 710 mmHg 26%
    16:00 +29°C° 0 mm 3 m/s 710 mmHg 31%
    17:00 +27°C° 0 mm 3 m/s 710 mmHg 37%
    18:00 +25°C° 0 mm 2 m/s 710 mmHg 43%
    19:00 +25°C° 0 mm 1 m/s 711 mmHg 45%
    20:00 +24°C° 0 mm 1 m/s 711 mmHg 47%
    21:00 +21°C° 0 mm 0 m/s 711 mmHg 49%
    22:00 +21°C° 0 mm 0 m/s 711 mmHg 49%
    23:00 +21°C° 0 mm 0 m/s 711 mmHg 50%

    26 Setembro, Quinta-feira

    Tempo Temperatura Precipitação Vento Pressão Humidade
    00:00 +20°C° 0 mm 0 m/s 711 mmHg 51%
    01:00 +20°C° 0 mm 0 m/s 711 mmHg 51%
    02:00 +20°C° 0 mm 0 m/s 711 mmHg 52%
    03:00 +19°C° 0 mm 0 m/s 710 mmHg 52%
    04:00 +19°C° 0 mm 0 m/s 711 mmHg 53%
    05:00 +19°C° 0 mm 0 m/s 711 mmHg 54%
    06:00 +19°C° 0 mm 0 m/s 711 mmHg 55%
    07:00 +22°C° 0 mm 1 m/s 712 mmHg 50%
    08:00 +24°C° 0 mm 1 m/s 712 mmHg 45%
    09:00 +25°C° 0 mm 1 m/s 713 mmHg 41%
    10:00 +26°C° 0 mm 2 m/s 713 mmHg 39%
    11:00 +27°C° 0 mm 2 m/s 713 mmHg 38%
    12:00 +28°C° 0 mm 3 m/s 713 mmHg 37%
    13:00 +28°C° 0 mm 3 m/s 713 mmHg 39%
    14:00 +28°C° 0 mm 3 m/s 713 mmHg 42%
    15:00 +28°C° 0 mm 4 m/s 712 mmHg 44%
    16:00 +27°C° 0 mm 3 m/s 712 mmHg 53%
    17:00 +25°C° 0 mm 3 m/s 712 mmHg 62%
    18:00 +22°C° 0 mm 3 m/s 712 mmHg 71%
    19:00 +23°C° 0 mm 2 m/s 713 mmHg 75%
    20:00 +21°C° 0 mm 2 m/s 713 mmHg 78%
    21:00 +21°C° 0 mm 1 m/s 713 mmHg 82%
    22:00 +21°C° 0 mm 1 m/s 713 mmHg 83%
    23:00 +21°C° 0 mm 1 m/s 712 mmHg 83%

    27 Setembro, Sexta-feira

    Tempo Temperatura Precipitação Vento Pressão Humidade
    00:00 +19°C° 0 mm 0 m/s 712 mmHg 84%
    01:00 +18°C° 0 mm 0 m/s 712 mmHg 84%
    02:00 +18°C° 0 mm 0 m/s 712 mmHg 85%
    03:00 +18°C° 0 mm 0 m/s 712 mmHg 85%
    04:00 +18°C° 0 mm 0 m/s 712 mmHg 85%
    05:00 +18°C° 0 mm 0 m/s 712 mmHg 84%
    06:00 +18°C° 0 mm 0 m/s 712 mmHg 83%
    07:00 +20°C° 0 mm 0 m/s 712 mmHg 74%
    08:00 +22°C° 0 mm 0 m/s 713 mmHg 65%
    09:00 +26°C° 0 mm 1 m/s 713 mmHg 56%
    10:00 +27°C° 0 mm 1 m/s 713 mmHg 49%
    11:00 +28°C° 0 mm 2 m/s 713 mmHg 41%
    12:00 +30°C° 0 mm 3 m/s 713 mmHg 34%
    13:00 +30°C° 0 mm 3 m/s 713 mmHg 34%
    14:00 +30°C° 0 mm 3 m/s 712 mmHg 35%
    15:00 +30°C° 0 mm 4 m/s 712 mmHg 35%
    16:00 +28°C° 0 mm 3 m/s 712 mmHg 45%
    17:00 +26°C° 0 mm 3 m/s 712 mmHg 54%
    18:00 +24°C° 0 mm 2 m/s 712 mmHg 64%
    19:00 +23°C° 0 mm 2 m/s 712 mmHg 67%
    20:00 +22°C° 0 mm 1 m/s 712 mmHg 70%
    21:00 +22°C° 0 mm 1 m/s 713 mmHg 73%
    22:00 +20°C° 0 mm 0 m/s 712 mmHg 73%
    23:00 +19°C° 0 mm 0 m/s 712 mmHg 73%

    28 Setembro, Sábado

    Tempo Temperatura Precipitação Vento Pressão Humidade
    00:00 +19°C° 0 mm 0 m/s 712 mmHg 73%
    01:00 +19°C° 0 mm 0 m/s 712 mmHg 73%
    02:00 +19°C° 0 mm 0 m/s 712 mmHg 74%
    03:00 +18°C° 0 mm 0 m/s 712 mmHg 74%
    04:00 +18°C° 0 mm 0 m/s 712 mmHg 73%
    05:00 +18°C° 0 mm 0 m/s 712 mmHg 73%
    06:00 +18°C° 0 mm 0 m/s 712 mmHg 73%
    07:00 +20°C° 0 mm 0 m/s 712 mmHg 65%
    08:00 +22°C° 0 mm 0 m/s 713 mmHg 56%
    09:00 +24°C° 0 mm 0 m/s 714 mmHg 48%
    10:00 +27°C° 0 mm 1 m/s 714 mmHg 43%
    11:00 +29°C° 0 mm 2 m/s 713 mmHg 37%
    12:00 +30°C° 0 mm 2 m/s 713 mmHg 32%
    13:00 +30°C° 0 mm 2 m/s 713 mmHg 32%
    14:00 +30°C° 0 mm 3 m/s 713 mmHg 31%
    15:00 +30°C° 0 mm 3 m/s 712 mmHg 31%
    16:00 +28°C° 0 mm 3 m/s 712 mmHg 40%
    17:00 +27°C° 0 mm 2 m/s 712 mmHg 49%
    18:00 +25°C° 0 mm 2 m/s 711 mmHg 58%
    19:00 +24°C° 0 mm 1 m/s 712 mmHg 60%
    20:00 +23°C° 0 mm 1 m/s 712 mmHg 63%
    21:00 +23°C° 0 mm 1 m/s 712 mmHg 66%
    22:00 +23°C° 0 mm 1 m/s 711 mmHg 64%
    23:00 +23°C° 0 mm 1 m/s 711 mmHg 63%
    Mostrar mais